Location: Pella
(41.4080°N, 92.9160°W)
Time: 00:46:04
(UTC-05:00)

ISS - Visible Passes

Search period start: 25 March 2019 00:00
Search period end: 04 April 2019 00:00
Orbit: 408 x 411 km, 51.6° (Epoch: 25 March)

Date Brightness Start Highest point End Pass type
(mag) Time Alt. Az. Time Alt. Az. Time Alt. Az.
25 Mar -2.1 20:25:58 10° W 20:28:59 32° NNW 20:32:00 10° NE visible
25 Mar -0.7 22:04:24 10° NW 22:05:31 14° NNW 22:05:31 14° NNW visible
26 Mar -1.2 21:13:15 10° NW 21:15:26 16° NNW 21:17:06 12° NNE visible
27 Mar -1.4 20:22:02 10° WNW 20:24:34 20° NNW 20:27:07 10° NNE visible
27 Mar -0.8 22:00:15 10° NNW 22:01:22 13° NNW 22:01:22 13° NNW visible
28 Mar -1.1 21:09:19 10° NW 21:11:10 14° N 21:12:48 11° NNE visible
29 Mar -1.2 20:18:11 10° NW 20:20:14 15° N 20:22:17 10° NNE visible
29 Mar -1.0 21:55:35 10° NNW 21:56:56 15° N 21:56:56 15° N visible
30 Mar -1.3 21:04:55 10° NNW 21:06:52 15° N 21:08:17 12° NE visible
31 Mar -1.2 20:14:04 10° NNW 20:15:54 14° N 20:17:45 10° NE visible
31 Mar -1.5 21:50:38 10° NW 21:52:22 20° N 21:52:22 20° N visible
01 Apr -1.7 21:00:05 10° NNW 21:02:28 18° NNE 21:03:41 15° NE visible
01 Apr -0.3 22:36:14 10° NW 22:36:26 11° NW 22:36:26 11° NW visible
02 Apr -1.4 20:09:26 10° NNW 20:11:31 15° N 20:13:36 10° NE visible
02 Apr -2.2 21:45:36 10° NW 21:47:45 31° NNW 21:47:45 31° NNW visible
03 Apr -2.4 20:55:01 10° NW 20:57:55 28° NNE 20:59:06 22° ENE visible
03 Apr -0.5 22:31:27 10° WNW 22:31:51 13° WNW 22:31:51 13° WNW visible
